FW7504 Weather Reports


time (UTC)temp
C
wind
direction
speed
KPH
gust
KPH
rain 1hr
cm
rain 24hr
cm
rain mn
cm
humidity
%
barometer
mb
20260906005052 26 0 0.0 1.6 0.00 0.05 0.05 75 1013.4
20260906004605 27 0 0.0 0.0 0.00 0.05 0.05 75 1013.4
20260906004052 27 0 0.0 0.0 0.00 0.05 0.05 74 1013.3
20260906003549 27 0 0.0 0.0 0.00 0.05 0.05 74 1013.3
20260906003111 27 0 0.0 0.0 0.00 0.05 0.05 74 1013.2
20260906002552 27 0 0.0 0.0 0.00 0.05 0.05 73 1013.1
20260906002055 27 0 0.0 1.6 0.00 0.05 0.05 73 1013.1
20260906001604 27 0 0.0 4.8 0.00 0.05 0.05 71 1013.0
20260906001054 28 0 1.6 4.8 0.00 0.05 0.05 71 1013.1
20260906000551 28 68 1.6 4.8 0.00 0.05 0.05 71 1013.1
20260905235552 28 5 0.0 1.6 0.00 0.05 0.05 69 1013.5
20260905235057 28 0 0.0 1.6 0.00 0.05 0.05 69 1013.4
20260905234603 28 0 0.0 3.2 0.00 0.05 0.05 68 1013.2
20260905234054 28 0 0.0 3.2 0.00 0.05 0.05 68 1013.5
20260905233554 28 0 0.0 3.2 0.00 0.05 0.05 67 1013.6
20260905233121 28 0 0.0 3.2 0.00 0.05 0.05 68 1013.5
20260905232553 28 0 0.0 1.6 0.00 0.05 0.05 68 1013.6
20260905232053 28 0 0.0 1.6 0.00 0.05 0.05 68 1013.4
20260905231602 29 0 0.0 1.6 0.00 0.05 0.05 67 1013.1
20260905231054 29 0 0.0 3.2 0.00 0.05 0.05 67 1012.9
20260905230556 29 0 0.0 12.9 0.00 0.05 0.05 65 1012.9
20260905230103 29 0 3.2 12.9 0.00 0.05 0.05 64 1012.9
20260905225553 29 113 4.8 12.9 0.00 0.05 0.05 64 1012.8
20260905225054 29 102 6.4 12.9 0.00 0.05 0.05 64 1012.7
20260905224625 30 104 4.8 12.9 0.00 0.05 0.05 63 1013.0
20260905224053 30 78 3.2 11.3 0.00 0.05 0.05 63 1013.0
20260905223553 30 77 1.6 11.3 0.00 0.05 0.05 63 1013.0
20260905223107 30 70 1.6 9.7 0.00 0.05 0.05 63 1013.1
20260905222553 30 71 3.2 11.3 0.00 0.05 0.05 63 1013.1
20260905222053 30 82 3.2 14.5 0.00 0.05 0.05 63 1013.3
20260905221559 30 53 4.8 14.5 0.00 0.05 0.05 62 1013.2
20260905221054 30 64 4.8 11.3 0.00 0.05 0.05 63 1013.3
20260905220553 30 360 1.6 9.7 0.00 0.05 0.05 64 1013.5
20260905220107 30 85 1.6 12.9 0.00 0.05 0.05 64 1013.6
20260905215554 30 63 4.8 16.1 0.00 0.05 0.05 64 1013.6
20260905215053 30 360 4.8 16.1 0.00 0.05 0.05 64 1013.7
20260905214606 30 90 4.8 11.3 0.00 0.05 0.05 65 1013.8
20260905214054 30 69 1.6 9.7 0.00 0.05 0.05 66 1013.8
20260905213554 30 0 3.2 16.1 0.00 0.05 0.05 65 1013.7
20260905213102 30 51 3.2 16.1 0.00 0.05 0.05 65 1013.6
20260905212554 30 41 6.4 17.7 0.00 0.05 0.05 64 1013.7
20260905212053 30 9 6.4 17.7 0.00 0.05 0.05 65 1013.6
20260905211609 30 59 4.8 17.7 0.00 0.05 0.05 66 1013.7
20260905211052 30 331 8.0 20.9 0.00 0.05 0.05 66 1013.7
20260905210553 30 34 6.4 22.5 0.00 0.05 0.05 66 1013.8
20260905205554 30 100 12.9 24.1 0.00 0.05 0.05 67 1013.5
20260905205053 30 94 12.9 24.1 0.00 0.05 0.05 67 1013.7
20260905204602 30 91 14.5 24.1 0.00 0.05 0.05 67 1013.7
20260905204056 30 322 8.0 24.1 0.00 0.05 0.05 67 1013.8
20260905203554 30 63 11.3 22.5 0.00 0.05 0.05 67 1014.0
20260905203106 30 67 11.3 24.1 0.00 0.05 0.05 67 1014.1
20260905202554 30 52 9.7 24.1 0.00 0.05 0.05 68 1014.1
20260905202056 30 109 6.4 20.9 0.00 0.05 0.05 69 1014.1
20260905201611 30 80 6.4 33.8 0.00 0.05 0.05 70 1013.9
20260905201055 30 77 11.3 33.8 0.00 0.05 0.05 71 1013.8
20260905200554 30 344 1.6 6.4 0.00 0.05 0.05 79 1013.4
20260905200104 30 0 0.0 3.2 0.00 0.05 0.05 83 1013.3
20260905195555 29 0 0.0 3.2 0.00 0.05 0.05 85 1013.4
20260905195054 29 0 0.0 1.6 0.00 0.05 0.05 88 1013.6
20260905194600 29 0 0.0 0.0 0.00 0.05 0.05 86 1013.5
20260905194057 29 0 0.0 0.0 0.00 0.05 0.05 88 1013.5
20260905193553 29 0 0.0 0.0 0.05 0.05 0.05 88 1013.6
20260905193100 29 0 0.0 0.0 0.05 0.05 0.05 89 1013.8
20260905192554 29 0 0.0 0.0 0.05 0.05 0.05 89 1013.8
20260905192054 29 0 0.0 0.0 0.05 0.05 0.05 89 1013.9
20260905191610 29 0 0.0 1.6 0.05 0.05 0.05 87 1013.9
20260905191053 29 0 0.0 3.2 0.05 0.05 0.05 84 1014.0
20260905190553 29 0 0.0 3.2 0.05 0.05 0.05 81 1014.2
20260905190138 30 0 0.0 3.2 0.05 0.05 0.05 78 1014.1
20260905185554 31 0 0.0 4.8 0.05 0.05 0.05 74 1014.4
20260905185054 32 0 1.6 8.0 0.05 0.05 0.05 71 1014.3
20260905184622 33 225 1.6 8.0 0.05 0.05 0.05 67 1014.3
20260905184056 34 360 1.6 8.0 0.05 0.05 0.05 60 1014.3
20260905183554 35 360 1.6 9.7 0.00 0.00 0.00 54 1014.0
20260905183106 35 360 3.2 9.7 0.00 0.00 0.00 53 1013.9
20260905182553 35 360 4.8 9.7 0.00 0.00 0.00 54 1014.1
20260905182056 35 360 1.6 6.4 0.00 0.00 0.00 52 1014.1
20260905181606 35 0 1.6 12.9 0.00 0.00 0.00 52 1014.1
20260905181054 35 360 1.6 12.9 0.00 0.00 0.00 52 1014.3
20260905180554 35 360 4.8 12.9 0.00 0.00 0.00 54 1014.4
20260905180108 35 360 0.0 12.9 0.00 0.00 0.00 53 1014.3
20260905175553 35 360 0.0 14.5 0.00 0.00 0.00 53 1014.3
20260905175054 35 360 6.4 14.5 0.00 0.00 0.00 53 1014.5
20260905174604 35 360 4.8 12.9 0.00 0.00 0.00 53 1014.6
20260905174052 35 360 3.2 9.7 0.00 0.00 0.00 55 1014.7
20260905173556 35 360 4.8 12.9 0.00 0.00 0.00 55 1014.7
20260905173109 34 360 3.2 16.1 0.00 0.00 0.00 54 1014.9
20260905172556 34 360 4.8 16.1 0.00 0.00 0.00 55 1014.9
20260905172053 33 360 0.0 8.0 0.00 0.00 0.00 57 1015.0
20260905171603 33 0 3.2 8.0 0.00 0.00 0.00 57 1014.9
20260905171050 33 360 1.6 8.0 0.00 0.00 0.00 59 1014.9
20260905170553 33 360 3.2 8.0 0.00 0.00 0.00 60 1015.0
20260905170120 33 360 0.0 12.9 0.00 0.00 0.00 62 1015.1
20260905165548 33 360 3.2 12.9 0.00 0.00 0.00 62 1015.0
20260905165055 33 360 0.0 12.9 0.00 0.00 0.00 63 1015.2
20260905164602 33 0 3.2 12.9 0.00 0.00 0.00 63 1015.3
20260905164051 32 360 3.2 12.9 0.00 0.00 0.00 64 1015.4
20260905163551 32 360 1.6 12.9 0.00 0.00 0.00 64 1015.5
20260905163106 32 360 6.4 12.9 0.00 0.00 0.00 65 1015.5
20260905162550 32 360 1.6 8.0 0.00 0.00 0.00 66 1015.4
20260905162051 32 0 1.6 8.0 0.00 0.00 0.00 66 1015.5
20260905161601 32 360 1.6 8.0 0.00 0.00 0.00 67 1015.6
20260905161052 32 0 0.0 6.4 0.00 0.00 0.00 68 1015.6
20260905160551 32 0 0.0 8.0 0.00 0.00 0.00 67 1015.7
20260905160112 32 360 1.6 8.0 0.00 0.00 0.00 67 1015.8
20260905155552 32 360 3.2 8.0 0.00 0.00 0.00 69 1015.8
20260905155054 31 0 0.0 8.0 0.00 0.00 0.00 68 1015.8
20260905154606 31 360 3.2 8.0 0.00 0.00 0.00 69 1016.0
20260905154052 31 0 3.2 8.0 0.00 0.00 0.00 69 1016.1
20260905153552 31 360 1.6 6.4 0.00 0.00 0.00 69 1016.1
20260905153104 31 0 1.6 6.4 0.00 0.00 0.00 69 1015.9
20260905152552 31 0 1.6 6.4 0.00 0.00 0.00 69 1016.1
20260905152051 31 360 1.6 6.4 0.00 0.00 0.00 69 1016.1
20260905151605 31 0 0.0 6.4 0.00 0.00 0.00 70 1016.1
20260905151052 31 360 1.6 6.4 0.00 0.00 0.00 70 1016.1
20260905150551 31 360 0.0 4.8 0.00 0.00 0.00 70 1016.1
20260905150108 30 0 1.6 4.8 0.00 0.00 0.00 70 1016.1
20260905145551 30 0 0.0 4.8 0.00 0.00 0.00 73 1016.2
20260905145051 30 0 0.0 4.8 0.00 0.00 0.00 74 1016.4
20260905144604 29 360 1.6 4.8 0.00 0.00 0.00 75 1016.4
20260905144052 29 0 0.0 1.6 0.00 0.00 0.00 76 1016.3
20260905143552 29 0 0.0 3.2 0.00 0.00 0.00 76 1016.4
20260905143100 29 0 0.0 3.2 0.00 0.00 0.00 76 1016.4
20260905142554 28 0 0.0 3.2 0.00 0.00 0.00 76 1016.4
20260905142053 28 360 0.0 1.6 0.00 0.00 0.00 77 1016.4
20260905141629 29 0 0.0 3.2 0.00 0.00 0.00 77 1016.6
20260905141053 29 0 0.0 3.2 0.00 0.00 0.00 77 1016.5
20260905140555 29 360 0.0 4.8 0.00 0.00 0.00 77 1016.5
20260905140109 28 0 0.0 4.8 0.00 0.00 0.00 78 1016.5
20260905135556 28 360 0.0 4.8 0.00 0.00 0.00 79 1016.5
20260905135055 28 360 1.6 4.8 0.00 0.00 0.00 80 1016.6
20260905134605 27 0 0.0 4.8 0.00 0.00 0.00 81 1016.5
20260905134053 27 0 0.0 4.8 0.00 0.00 0.00 83 1016.5
20260905133553 27 0 1.6 4.8 0.00 0.00 0.00 83 1016.6
20260905133104 26 360 1.6 4.8 0.00 0.00 0.00 84 1016.8
20260905132553 26 0 0.0 3.2 0.00 0.00 0.00 85 1016.8
20260905132053 26 0 1.6 3.2 0.00 0.00 0.00 85 1016.8
20260905131631 26 360 0.0 1.6 0.00 0.00 0.00 87 1016.8
20260905131054 26 0 0.0 0.0 0.00 0.00 0.00 87 1016.8
20260905130554 25 0 0.0 0.0 0.00 0.00 0.00 88 1016.9
20260905130120 25 0 0.0 0.0 0.00 0.00 0.00 88 1016.8
20260905125553 25 0 0.0 0.0 0.00 0.00 0.00 89 1016.8
20260905125053 25 0 0.0 0.0 0.00 0.00 0.00 89 1016.8
20260905124600 25 0 0.0 0.0 0.00 0.00 0.00 90 1016.6
20260905124053 24 0 0.0 0.0 0.00 0.00 0.00 90 1016.8
20260905123553 24 0 0.0 0.0 0.00 0.00 0.00 91 1016.8
20260905123111 24 0 0.0 0.0 0.00 0.00 0.00 91 1016.8
20260905122553 24 0 0.0 0.0 0.00 0.00 0.00 91 1016.7
20260905122052 23 0 0.0 0.0 0.00 0.00 0.00 91 1016.7
20260905121601 23 0 0.0 0.0 0.00 0.00 0.00 91 1016.7
20260905121056 23 0 0.0 0.0 0.00 0.00 0.00 91 1016.7
20260905120554 23 0 0.0 0.0 0.00 0.00 0.00 91 1016.8
20260905120105 23 0 0.0 0.0 0.00 0.00 0.00 91 1016.7
20260905115554 23 0 0.0 0.0 0.00 0.00 0.00 91 1016.5
20260905115053 23 0 0.0 0.0 0.00 0.00 0.00 90 1016.4
20260905114600 23 0 0.0 0.0 0.00 0.00 0.00 90 1016.5
20260905114053 23 0 0.0 0.0 0.00 0.00 0.00 90 1016.2
20260905113553 23 0 0.0 0.0 0.00 0.00 0.00 90 1016.2
20260905113112 23 0 0.0 0.0 0.00 0.00 0.00 90 1016.2
20260905112554 23 0 0.0 0.0 0.00 0.00 0.00 90 1016.1
20260905112056 23 0 0.0 0.0 0.00 0.00 0.00 90 1016.0
20260905111559 23 0 0.0 0.0 0.00 0.00 0.00 90 1015.8
20260905111052 23 0 0.0 0.0 0.00 0.00 0.00 90 1015.8
20260905110551 23 0 0.0 0.0 0.00 0.00 0.00 89 1015.7
20260905110057 23 0 0.0 0.0 0.00 0.00 0.00 90 1015.7
20260905105551 23 0 0.0 0.0 0.00 0.00 0.00 90 1015.6
20260905105051 23 0 0.0 0.0 0.00 0.00 0.00 89 1015.6
20260905104559 23 0 0.0 0.0 0.00 0.00 0.00 90 1015.6
20260905104052 23 0 0.0 0.0 0.00 0.00 0.00 90 1015.5
20260905103551 23 0 0.0 0.0 0.00 0.00 0.00 90 1015.5
20260905103102 23 0 0.0 0.0 0.00 0.00 0.00 90 1015.5
20260905102551 23 0 0.0 0.0 0.00 0.00 0.00 89 1015.5
20260905102051 23 0 0.0 3.2 0.00 0.00 0.00 89 1015.5
20260905101631 23 0 0.0 3.2 0.00 0.00 0.00 89 1015.5
20260905101054 24 360 0.0 1.6 0.00 0.00 0.00 89 1015.5
20260905100551 24 0 0.0 1.6 0.00 0.00 0.00 89 1015.6
20260905095551 24 0 0.0 0.0 0.00 0.00 0.00 89 1015.4
20260905095051 24 0 0.0 0.0 0.00 0.00 0.00 89 1015.5
20260905094603 24 0 0.0 0.0 0.00 0.00 0.00 89 1015.4
20260905094050 24 0 0.0 1.6 0.00 0.00 0.00 89 1015.2
20260905093549 24 0 0.0 1.6 0.00 0.00 0.00 88 1015.2
20260905093102 24 0 0.0 1.6 0.00 0.00 0.00 88 1015.2
20260905092553 24 0 0.0 0.0 0.00 0.00 0.00 88 1015.2
20260905092051 24 0 0.0 0.0 0.00 0.00 0.00 88 1015.2
20260905091629 24 0 0.0 0.0 0.00 0.00 0.00 88 1015.2
20260905091049 24 0 0.0 1.6 0.00 0.00 0.00 88 1015.0
20260905090552 24 0 0.0 3.2 0.00 0.00 0.00 88 1015.2
20260905090100 24 0 0.0 3.2 0.00 0.00 0.00 88 1015.3
20260905085549 24 0 0.0 3.2 0.00 0.00 0.00 88 1015.3
20260905085051 24 0 0.0 3.2 0.00 0.00 0.00 88 1015.3
20260905084616 24 360 0.0 3.2 0.00 0.00 0.00 87 1015.2
20260905084048 24 0 0.0 1.6 0.00 0.00 0.00 88 1015.2
20260905083552 24 0 0.0 1.6 0.00 0.00 0.00 88 1015.2
20260905083054 25 0 0.0 1.6 0.00 0.00 0.00 87 1015.2
20260905082551 25 0 0.0 0.0 0.00 0.00 0.00 87 1015.1
20260905082051 25 0 0.0 0.0 0.00 0.00 0.00 87 1015.2
20260905081602 25 0 0.0 0.0 0.00 0.00 0.00 87 1015.2
20260905081053 25 0 0.0 0.0 0.00 0.00 0.00 86 1015.2
20260905080554 25 0 0.0 0.0 0.00 0.00 0.00 86 1015.0
20260905080106 25 0 0.0 1.6 0.00 0.00 0.00 85 1015.0
20260905075557 25 0 0.0 1.6 0.00 0.00 0.00 85 1014.9
20260905075052 25 0 0.0 0.0 0.00 0.00 0.00 85 1015.0
20260905074600 25 0 0.0 0.0 0.00 0.00 0.00 84 1015.1
20260905074052 25 0 0.0 3.2 0.00 0.00 0.00 85 1015.0
20260905073552 25 0 0.0 3.2 0.00 0.00 0.00 84 1014.9
20260905073104 25 0 1.6 3.2 0.00 0.00 0.00 84 1014.9
20260905072556 25 360 0.0 3.2 0.00 0.00 0.00 84 1015.0
20260905072056 25 0 0.0 0.0 0.00 0.00 0.00 84 1015.0
20260905071603 25 0 0.0 0.0 0.00 0.00 0.00 84 1015.0
20260905071053 26 0 0.0 0.0 0.00 0.00 0.00 84 1015.0
20260905070553 26 0 0.0 0.0 0.00 0.00 0.00 84 1015.0
20260905070118 26 0 0.0 0.0 0.00 0.00 0.00 84 1015.1
20260905065552 26 0 0.0 0.0 0.00 0.00 0.00 84 1015.1
20260905065053 26 0 0.0 0.0 0.00 0.00 0.00 84 1015.3
20260905064601 26 0 0.0 0.0 0.00 0.00 0.00 84 1015.3
20260905064053 26 0 0.0 0.0 0.00 0.00 0.00 84 1015.3
20260905063552 26 0 0.0 0.0 0.00 0.00 0.00 84 1015.3
20260905063102 26 0 0.0 0.0 0.00 0.00 0.00 84 1015.2
20260905062552 26 0 0.0 0.0 0.00 0.00 0.00 84 1015.2
20260905062053 26 0 0.0 0.0 0.00 0.00 0.00 83 1015.2
20260905061618 26 0 0.0 0.0 0.00 0.00 0.00 83 1015.3
20260905061054 26 0 0.0 0.0 0.00 0.00 0.00 83 1015.2
20260905060553 26 0 0.0 0.0 0.00 0.00 0.00 83 1015.2
20260905060109 26 0 0.0 0.0 0.00 0.00 0.00 83 1015.4
20260905055554 26 0 0.0 1.6 0.00 0.00 0.00 82 1015.4
20260905055053 26 0 0.0 1.6 0.00 0.00 0.00 82 1015.4
20260905054603 26 0 0.0 3.2 0.00 0.00 0.00 82 1015.5
20260905054052 26 0 0.0 3.2 0.00 0.00 0.00 82 1015.6
20260905053553 26 0 0.0 0.0 0.00 0.00 0.00 82 1015.4
20260905053114 26 0 0.0 0.0 0.00 0.00 0.00 82 1015.5
20260905052555 26 0 0.0 0.0 0.00 0.00 0.00 82 1015.5
20260905052056 26 0 0.0 0.0 0.00 0.00 0.00 82 1015.4
20260905051559 26 0 0.0 0.0 0.00 0.00 0.00 82 1015.5
20260905051117 26 0 0.0 0.0 0.00 0.00 0.00 82 1015.5
20260905050553 26 0 0.0 0.0 0.00 0.00 0.00 82 1015.4
20260905050108 26 0 0.0 0.0 0.00 0.00 0.00 81 1015.3
20260905045551 26 0 0.0 0.0 0.00 0.00 0.00 81 1015.5
20260905045054 27 0 0.0 1.6 0.00 0.00 0.00 81 1015.5
20260905044603 27 0 0.0 1.6 0.00 0.00 0.00 81 1015.6
20260905044052 27 0 0.0 1.6 0.00 0.00 0.00 80 1015.6
20260905043552 27 0 0.0 1.6 0.00 0.00 0.00 79 1015.7
20260905043106 27 0 0.0 1.6 0.00 0.00 0.00 80 1015.7
20260905042556 27 0 0.0 0.0 0.00 0.00 0.00 79 1015.7
20260905042052 27 0 0.0 0.0 0.00 0.00 0.00 78 1015.7
20260905041603 27 0 0.0 0.0 0.00 0.00 0.00 78 1015.7
20260905041052 27 0 0.0 0.0 0.00 0.00 0.00 77 1015.8
20260905040554 27 0 0.0 0.0 0.00 0.00 0.00 77 1015.7
20260905035553 27 0 0.0 0.0 0.00 0.00 0.00 76 1015.9
20260905035053 27 0 0.0 0.0 0.00 0.00 0.00 75 1016.1
20260905034601 27 0 0.0 1.6 0.00 0.00 0.00 75 1016.1
20260905034054 27 0 0.0 1.6 0.00 0.00 0.00 76 1016.2
20260905033552 28 0 0.0 3.2 0.00 0.00 0.00 75 1016.3
20260905033104 28 0 0.0 4.8 0.00 0.00 0.00 75 1016.4
20260905032552 28 0 1.6 4.8 0.00 0.00 0.00 75 1016.5
20260905032054 28 360 0.0 1.6 0.00 0.00 0.00 74 1016.4
20260905031603 28 0 0.0 1.6 0.00 0.00 0.00 75 1016.4
20260905031054 28 0 0.0 1.6 0.00 0.00 0.00 75 1016.4
20260905030553 28 0 0.0 1.6 0.00 0.00 0.00 74 1016.4
20260905030107 28 0 0.0 1.6 0.00 0.00 0.00 74 1016.4
20260905025552 28 0 0.0 0.0 0.00 0.00 0.00 73 1016.4
20260905025053 28 0 0.0 0.0 0.00 0.00 0.00 72 1016.4
20260905024640 28 0 0.0 0.0 0.00 0.00 0.00 71 1016.5
20260905024057 28 0 0.0 3.2 0.00 0.00 0.00 72 1016.6
20260905023554 28 0 0.0 3.2 0.00 0.00 0.00 72 1016.6
20260905023105 28 0 0.0 3.2 0.00 0.00 0.00 71 1016.5
20260905022552 28 0 0.0 0.0 0.00 0.00 0.00 72 1016.4
20260905022052 28 0 0.0 1.6 0.00 0.00 0.00 73 1016.4
20260905021603 28 0 0.0 1.6 0.00 0.00 0.00 72 1016.5
20260905021052 28 0 0.0 1.6 0.00 0.00 0.00 73 1016.4
20260905020554 29 0 0.0 1.6 0.00 0.00 0.00 73 1016.5
20260905015553 29 0 0.0 1.6 0.00 0.00 0.00 71 1016.4
20260905015055 29 0 0.0 1.6 0.00 0.00 0.00 72 1016.4
20260905014603 29 0 0.0 1.6 0.00 0.00 0.00 72 1016.3
20260905014052 29 0 0.0 0.0 0.00 0.00 0.00 73 1016.3
20260905013553 29 0 0.0 0.0 0.00 0.00 0.00 72 1016.4
20260905013113 29 0 0.0 0.0 0.00 0.00 0.00 72 1016.2
20260905012553 30 0 0.0 0.0 0.00 0.00 0.00 72 1016.3
20260905012054 30 0 0.0 3.2 0.00 0.00 0.00 71 1016.3
20260905011601 30 0 0.0 3.2 0.00 0.00 0.00 71 1016.3
20260905011053 30 0 0.0 3.2 0.00 0.00 0.00 71 1016.1
20260905010553 30 360 0.0 3.2 0.00 0.00 0.00 70 1016.1
20260905010108 30 0 0.0 1.6 0.00 0.00 0.00 70 1016.1
20260905005552 30 0 0.0 1.6 0.00 0.00 0.00 70 1016.2